Location: Ferchesar
(52.6477°N, 12.4298°E)
Time: 10:07:16
(UTC+01:00)

S-56A Canister/Altair - Pass Details

Date: 07 December 2021
Orbit: 633 x 2499 km, 38.9° (Epoch: 19 January)

Event Time Altitude Azimuth Distance (km) Brightness Sun altitude
Rises 21:57:15 0° 211° (SSW) 5,765 11.9 -51.8°
Enters shadow 21:58:05 - 210° (SSW) 5,556 11.8 -51.9°
Reaches altitude 10° 22:02:32 10° 198° (SSW) 4,470 - -52.4°
Maximum altitude 22:10:20 21° 157° (SSE) 3,134 - -53.3°
Drops below altitude 10° 22:16:30 10° 112° (ESE) 3,421 - -53.9°
Sets 22:19:50 0° 97° (E) 4,101 - -54.3°
